KD7CIH Weather Reports


time (UTC)temp
C
wind
direction
speed
KPH
gust
KPH
rain 1hr
cm
rain 24hr
cm
rain mn
cm
humidity
%
barometer
mb
20260502130741 -1 50 8.0 11.3 0.00 0.00 0.00 70 1018.1
20260502120242 -2 33 6.4 9.7 0.00 0.00 0.00 74 1017.7
20260502114241 -2 29 0.0 3.2 0.00 0.00 0.00 74 1017.7
20260502110241 -2 173 0.0 0.0 0.00 0.00 0.00 70 1017.6
20260502103239 -1 173 0.0 0.0 0.00 0.00 0.00 70 1017.7
20260502101730 -1 221 0.0 0.0 0.00 0.00 0.00 70 1017.6
20260502100719 -1 221 0.0 0.0 0.00 0.00 0.00 70 1017.6
20260502065211 4 60 1.6 3.2 0.00 0.00 0.00 47 1017.6
20260502063714 3 204 0.0 0.0 0.00 0.00 0.00 48 1017.6
20260502061510 4 203 0.0 0.0 0.00 0.00 0.00 43 1017.4
20260502055212 5 293 0.0 3.2 0.00 0.00 0.00 40 1017.2
20260502053713 6 311 0.0 3.2 0.00 0.00 0.00 39 1017.2
20260502052715 6 273 0.0 3.2 0.00 0.00 0.00 37 1017.1
20260502051713 7 165 1.6 11.3 0.00 0.00 0.00 33 1017.1
20260502044214 8 257 1.6 9.7 0.00 0.00 0.00 32 1017.1
20260502042214 7 268 0.0 3.2 0.00 0.00 0.00 39 1017.0
20260502041713 7 267 0.0 1.6 0.00 0.00 0.00 36 1017.0
20260502034214 7 328 1.6 6.4 0.00 0.00 0.00 42 1016.6
20260502030714 8 298 4.8 6.4 0.00 0.00 0.00 33 1015.9
20260502025714 9 295 4.8 8.0 0.00 0.00 0.00 33 1015.8
20260502025213 9 312 6.4 8.0 0.00 0.00 0.00 33 1015.8
20260502020006 11 276 1.6 3.2 0.00 0.00 0.00 31 1015.3
20260502014714 13 298 3.2 6.4 0.00 0.00 0.00 24 1015.2
20260502004716 15 331 3.2 8.0 0.00 0.00 0.00 20 1015.1
20260501234214 13 24 6.4 17.7 0.00 0.00 0.00 20 1015.3
20260501224715 13 296 12.9 19.3 0.00 0.00 0.00 21 1015.3
20260501222717 13 302 6.4 17.7 0.00 0.00 0.00 21 1015.4
20260501220214 13 329 6.4 17.7 0.00 0.00 0.00 21 1015.7
20260501214713 13 321 6.4 17.7 0.00 0.00 0.00 25 1015.7
20260501204714 12 78 12.9 22.5 0.00 0.00 0.00 24 1016.0
20260501203714 12 41 9.7 22.5 0.00 0.05 0.00 26 1016.0
20260501183214 10 175 6.4 12.9 0.00 0.48 0.00 30 1017.0
20260501172443 8 66 6.4 17.7 0.00 0.48 0.00 35 1017.5
20260501162140 6 57 3.2 8.0 0.00 0.48 0.00 41 1017.7
20260501155115 5 122 0.0 3.2 0.00 0.48 0.00 53 1017.7
20260501152613 3 209 1.6 4.8 0.00 0.48 0.00 62 1017.7
20260501145406 2 220 0.0 1.6 0.00 0.48 0.00 67 1017.8
20260501144905 1 220 0.0 1.6 0.00 0.48 0.00 70 1017.6
20260501142113 0 209 1.6 6.4 0.00 0.48 0.00 76 1017.6